Back to catalog

DELTA 1 R/B(1)

AliveUNKNOWN
NORAD 10295·ROCKET BODY·🇺🇸 United States

Launched Aug 25, 1977 from Cape Canaveral Space Force Station

Loading…

Next Passes (next 24 hours)

TLE

FreshSource: Space-Track

Epoch: Sep 14, 2026, 12:27 UTC

1 10295U 77080B   26257.51895809  .00000067  00000-0 -36189-4 0  9991
2 10295  27.0984  67.8969 0766510 321.6861  33.1514 12.48117994215333

Track DELTA 1 R/B(1) in real time with AllMySat

Download on the App Store